Location: Newark
(55.7816°N, 8.2389°E)
Time: 10:49:44
(UTC+00:00)

LilacSat-2 - Pass Details

Date: 21 February 2020
Orbit: 514 x 534 km, 97.5° (Epoch: 06 April)

Event Time Altitude Azimuth Distance (km) Brightness Sun altitude
Rises 04:44:28 0° 21° (NNE) 2,653 ? -16.8°
Reaches altitude 10° 04:46:48 10° 34° (NE) 1,762 ? -16.4°
Maximum altitude 04:50:06 28° 94° (E) 1,004 ? -16.0°
Drops below altitude 10° 04:53:25 10° 155° (SSE) 1,757 ? -15.5°
Sets 04:55:44 0° 167° (SSE) 2,644 ? -15.2°
